Year,Month,Day,Hour,Minute,Value (Times are PST for temperature in C)
2018,09,18,00,00,-0.10
2018,09,18,00,01,-0.10
2018,09,18,00,02,-0.20
2018,09,18,00,03,-0.20
2018,09,18,00,04,-0.20
2018,09,18,00,05,-0.20
2018,09,18,00,06,-0.30
2018,09,18,00,07,-0.30
2018,09,18,00,08,-0.30
2018,09,18,00,09,-0.30
2018,09,18,00,10,-0.30
2018,09,18,00,11,-0.40
2018,09,18,00,12,-0.40
2018,09,18,00,13,-0.40
2018,09,18,00,14,-0.50
2018,09,18,00,15,-0.50
2018,09,18,00,16,-0.50
2018,09,18,00,17,-0.60
2018,09,18,00,18,-0.60
2018,09,18,00,19,-0.60
2018,09,18,00,20,-0.70
2018,09,18,00,21,-0.70
2018,09,18,00,22,-0.70
2018,09,18,00,23,-0.80
2018,09,18,00,24,-0.80
2018,09,18,00,25,-0.80
2018,09,18,00,26,-0.80
2018,09,18,00,27,-0.90
2018,09,18,00,28,-0.90
2018,09,18,00,29,-1.00
2018,09,18,00,30,-1.00
2018,09,18,00,31,-1.00
2018,09,18,00,32,-1.10
2018,09,18,00,33,-1.10
2018,09,18,00,34,-1.10
2018,09,18,00,35,-1.10
2018,09,18,00,36,-1.10
2018,09,18,00,37,-1.10
2018,09,18,00,38,-1.20
2018,09,18,00,39,-1.20
2018,09,18,00,40,-1.20
2018,09,18,00,41,-1.20
2018,09,18,00,42,-1.20
2018,09,18,00,43,-1.20
2018,09,18,00,44,-1.20
2018,09,18,00,45,-1.20
2018,09,18,00,46,-1.20
2018,09,18,00,47,-1.20
2018,09,18,00,48,-1.20
2018,09,18,00,49,-1.20
2018,09,18,00,50,-1.20
2018,09,18,00,51,-1.20
2018,09,18,00,52,-1.20
2018,09,18,00,53,-1.20
2018,09,18,00,54,-1.20
2018,09,18,00,55,-1.20
2018,09,18,00,56,-1.20
2018,09,18,00,57,-1.30
2018,09,18,00,58,-1.30
2018,09,18,00,59,-1.30
2018,09,18,01,00,-1.30
2018,09,18,01,01,-1.30
2018,09,18,01,02,-1.30
2018,09,18,01,03,-1.30
2018,09,18,01,04,-1.30
2018,09,18,01,05,-1.30
2018,09,18,01,06,-1.30
2018,09,18,01,07,-1.30
2018,09,18,01,08,-1.30
2018,09,18,01,09,-1.30
2018,09,18,01,10,-1.40
2018,09,18,01,11,-1.40
2018,09,18,01,12,-1.40
2018,09,18,01,13,-1.40
2018,09,18,01,14,-1.40
2018,09,18,01,15,-1.40
2018,09,18,01,16,-1.50
2018,09,18,01,17,-1.50
2018,09,18,01,18,-1.50
2018,09,18,01,19,-1.50
2018,09,18,01,20,-1.60
2018,09,18,01,21,-1.60
2018,09,18,01,22,-1.60
2018,09,18,01,23,-1.60
2018,09,18,01,24,-1.60
2018,09,18,01,25,-1.60
2018,09,18,01,26,-1.60
2018,09,18,01,27,-1.60
2018,09,18,01,28,-1.70
2018,09,18,01,29,-1.70
2018,09,18,01,30,-1.70
2018,09,18,01,31,-1.70
2018,09,18,01,32,-1.70
2018,09,18,01,33,-1.80
2018,09,18,01,34,-1.80
2018,09,18,01,35,-1.80
2018,09,18,01,36,-1.80
2018,09,18,01,37,-1.80
2018,09,18,01,38,-1.80
2018,09,18,01,39,-1.80
2018,09,18,01,40,-1.90
2018,09,18,01,41,-1.90
2018,09,18,01,42,-1.90
2018,09,18,01,43,-1.90
2018,09,18,01,44,-1.90
2018,09,18,01,45,-1.90
2018,09,18,01,46,-1.90
2018,09,18,01,47,-1.90
2018,09,18,01,48,-2.00
2018,09,18,01,49,-2.00
2018,09,18,01,50,-2.00
2018,09,18,01,51,-2.00
2018,09,18,01,52,-2.10
2018,09,18,01,53,-2.10
2018,09,18,01,54,-2.10
2018,09,18,01,55,-2.10
2018,09,18,01,56,-2.10
2018,09,18,01,57,-2.10
2018,09,18,01,58,-2.20
2018,09,18,01,59,-2.20
2018,09,18,02,00,-2.20
2018,09,18,02,01,-2.20
2018,09,18,02,02,-2.20
2018,09,18,02,03,-2.20
2018,09,18,02,04,-2.30
2018,09,18,02,05,-2.30
2018,09,18,02,06,-2.30
2018,09,18,02,07,-2.30
2018,09,18,02,08,-2.30
2018,09,18,02,09,-2.30
2018,09,18,02,10,-2.30
2018,09,18,02,11,-2.30
2018,09,18,02,12,-2.30
2018,09,18,02,13,-2.30
2018,09,18,02,14,-2.30
2018,09,18,02,15,-2.40
2018,09,18,02,16,-2.40
2018,09,18,02,17,-2.40
2018,09,18,02,18,-2.40
2018,09,18,02,19,-2.40
2018,09,18,02,20,-2.50
2018,09,18,02,21,-2.50
2018,09,18,02,22,-2.50
2018,09,18,02,23,-2.50
2018,09,18,02,24,-2.50
2018,09,18,02,25,-2.50
2018,09,18,02,26,-2.50
2018,09,18,02,27,-2.50
2018,09,18,02,28,-2.50
2018,09,18,02,29,-2.50
2018,09,18,02,30,-2.50
2018,09,18,02,31,-2.50
2018,09,18,02,32,-2.50
2018,09,18,02,33,-2.50
2018,09,18,02,34,-2.60
2018,09,18,02,35,-2.60
2018,09,18,02,36,-2.60
2018,09,18,02,37,-2.60
2018,09,18,02,38,-2.60
2018,09,18,02,39,-2.60
2018,09,18,02,40,-2.60
2018,09,18,02,41,-2.60
2018,09,18,02,42,-2.60
2018,09,18,02,43,-2.70
2018,09,18,02,44,-2.70
2018,09,18,02,45,-2.70
2018,09,18,02,46,-2.70
2018,09,18,02,47,-2.70
2018,09,18,02,48,-2.70
2018,09,18,02,49,-2.70
2018,09,18,02,50,-2.70
2018,09,18,02,51,-2.70
2018,09,18,02,52,-2.80
2018,09,18,02,53,-2.80
2018,09,18,02,54,-2.80
2018,09,18,02,55,-2.80
2018,09,18,02,56,-2.80
2018,09,18,02,57,-2.80
2018,09,18,02,58,-2.80
2018,09,18,02,59,-2.80
2018,09,18,03,00,-2.80
2018,09,18,03,01,-2.80
2018,09,18,03,02,-2.80
2018,09,18,03,03,-2.80
2018,09,18,03,04,-2.80
2018,09,18,03,05,-2.80
2018,09,18,03,06,-2.80
2018,09,18,03,07,-2.80
2018,09,18,03,08,-2.80
2018,09,18,03,09,-2.80
2018,09,18,03,10,-2.80
2018,09,18,03,11,-2.80
2018,09,18,03,12,-2.90
2018,09,18,03,13,-2.90
2018,09,18,03,14,-2.90
2018,09,18,03,15,-2.90
2018,09,18,03,16,-2.90
2018,09,18,03,17,-2.90
2018,09,18,03,18,-2.90
2018,09,18,03,19,-2.90
2018,09,18,03,20,-2.90
2018,09,18,03,21,-2.90
2018,09,18,03,22,-2.90
2018,09,18,03,23,-2.90
2018,09,18,03,24,-3.00
2018,09,18,03,25,-3.00
2018,09,18,03,26,-3.00
2018,09,18,03,27,-3.10
2018,09,18,03,28,-3.10
2018,09,18,03,29,-3.10
2018,09,18,03,30,-3.10
2018,09,18,03,31,-3.20
2018,09,18,03,32,-3.20
2018,09,18,03,33,-3.20
2018,09,18,03,34,-3.20
2018,09,18,03,35,-3.20
2018,09,18,03,36,-3.30
2018,09,18,03,37,-3.30
2018,09,18,03,38,-3.30
2018,09,18,03,39,-3.30
2018,09,18,03,40,-3.30
2018,09,18,03,41,-3.30
2018,09,18,03,42,-3.30
2018,09,18,03,43,-3.30
2018,09,18,03,44,-3.30
2018,09,18,03,45,-3.30
2018,09,18,03,46,-3.30
2018,09,18,03,47,-3.30
2018,09,18,03,48,-3.30
2018,09,18,03,49,-3.30
2018,09,18,03,50,-3.40
2018,09,18,03,51,-3.40
2018,09,18,03,52,-3.40
2018,09,18,03,53,-3.40
2018,09,18,03,54,-3.40
2018,09,18,03,55,-3.40
2018,09,18,03,56,-3.40
2018,09,18,03,57,-3.40
2018,09,18,03,58,-3.40
2018,09,18,03,59,-3.50
2018,09,18,04,00,-3.50
2018,09,18,04,01,-3.50
2018,09,18,04,02,-3.50
2018,09,18,04,03,-3.50
2018,09,18,04,04,-3.50
2018,09,18,04,05,-3.50
2018,09,18,04,06,-3.50
2018,09,18,04,07,-3.50
2018,09,18,04,08,-3.50
2018,09,18,04,09,-3.60
2018,09,18,04,10,-3.60
2018,09,18,04,11,-3.60
2018,09,18,04,12,-3.60
2018,09,18,04,13,-3.60
2018,09,18,04,14,-3.60
2018,09,18,04,15,-3.60
2018,09,18,04,16,-3.50
2018,09,18,04,17,-3.50
2018,09,18,04,18,-3.50
2018,09,18,04,19,-3.50
2018,09,18,04,20,-3.50
2018,09,18,04,21,-3.50
2018,09,18,04,22,-3.50
2018,09,18,04,23,-3.50
2018,09,18,04,24,-3.50
2018,09,18,04,25,-3.50
2018,09,18,04,26,-3.50
2018,09,18,04,27,-3.50
2018,09,18,04,28,-3.50
2018,09,18,04,29,-3.60
2018,09,18,04,30,-3.60
2018,09,18,04,31,-3.60
2018,09,18,04,32,-3.60
2018,09,18,04,33,-3.70
2018,09,18,04,34,-3.70
2018,09,18,04,35,-3.70
2018,09,18,04,36,-3.70
2018,09,18,04,37,-3.80
2018,09,18,04,38,-3.80
2018,09,18,04,39,-3.80
2018,09,18,04,40,-3.80
2018,09,18,04,41,-3.80
2018,09,18,04,42,-3.80
2018,09,18,04,43,-3.80
2018,09,18,04,44,-3.80
2018,09,18,04,45,-3.80
2018,09,18,04,46,-3.80
2018,09,18,04,47,-3.80
2018,09,18,04,48,-3.80
2018,09,18,04,49,-3.80
2018,09,18,04,50,-3.80
2018,09,18,04,51,-3.80
2018,09,18,04,52,-3.80
2018,09,18,04,53,-3.80
2018,09,18,04,54,-3.80
2018,09,18,04,55,-3.80
2018,09,18,04,56,-3.80
2018,09,18,04,57,-3.80
2018,09,18,04,58,-3.80
2018,09,18,04,59,-3.90
2018,09,18,05,00,-3.90
2018,09,18,05,01,-3.90
2018,09,18,05,02,-3.90
2018,09,18,05,03,-3.90
2018,09,18,05,04,-3.90
2018,09,18,05,05,-3.90
2018,09,18,05,06,-3.90
2018,09,18,05,07,-3.90
2018,09,18,05,08,-4.00
2018,09,18,05,09,-4.00
2018,09,18,05,10,-4.00
2018,09,18,05,11,-4.00
2018,09,18,05,12,-4.00
2018,09,18,05,13,-4.10
2018,09,18,05,14,-4.10
2018,09,18,05,15,-4.10
2018,09,18,05,16,-4.10
2018,09,18,05,17,-4.10
2018,09,18,05,18,-4.10
2018,09,18,05,19,-4.10
2018,09,18,05,20,-4.10
2018,09,18,05,21,-4.10
2018,09,18,05,22,-4.20
2018,09,18,05,23,-4.20
2018,09,18,05,24,-4.20
2018,09,18,05,25,-4.20
2018,09,18,05,26,-4.20
2018,09,18,05,27,-4.20
2018,09,18,05,28,-4.20
2018,09,18,05,29,-4.10
2018,09,18,05,30,-4.10
2018,09,18,05,31,-4.10
2018,09,18,05,32,-4.10
2018,09,18,05,33,-4.10
2018,09,18,05,34,-4.10
2018,09,18,05,35,-4.10
2018,09,18,05,36,-4.10
2018,09,18,05,37,-4.10
2018,09,18,05,38,-4.10
2018,09,18,05,39,-4.10
2018,09,18,05,40,-4.10
2018,09,18,05,41,-4.10
2018,09,18,05,42,-4.10
2018,09,18,05,43,-4.10
2018,09,18,05,44,-4.10
2018,09,18,05,45,-4.10
2018,09,18,05,46,-4.10
2018,09,18,05,47,-4.10
2018,09,18,05,48,-4.10
2018,09,18,05,49,-4.10
2018,09,18,05,50,-4.10
2018,09,18,05,51,-4.10
2018,09,18,05,52,-4.10
2018,09,18,05,53,-4.10
2018,09,18,05,54,-4.20
2018,09,18,05,55,-4.20
2018,09,18,05,56,-4.20
2018,09,18,05,57,-4.10
2018,09,18,05,58,-4.10
2018,09,18,05,59,-4.10
2018,09,18,06,00,-4.10
2018,09,18,06,01,-4.10
2018,09,18,06,02,-4.10
2018,09,18,06,03,-4.10
2018,09,18,06,04,-4.10
2018,09,18,06,05,-4.10
2018,09,18,06,06,-4.10
2018,09,18,06,07,-4.10
2018,09,18,06,08,-4.10
2018,09,18,06,09,-4.10
2018,09,18,06,10,-4.10
2018,09,18,06,11,-4.10
2018,09,18,06,12,-4.10
2018,09,18,06,13,-4.10
2018,09,18,06,14,-4.10
2018,09,18,06,15,-4.10
2018,09,18,06,16,-4.20
2018,09,18,06,17,-4.20
2018,09,18,06,18,-4.20
2018,09,18,06,19,-4.20
2018,09,18,06,20,-4.20
2018,09,18,06,21,-4.20
2018,09,18,06,22,-4.20
2018,09,18,06,23,-4.20
2018,09,18,06,24,-4.20
2018,09,18,06,25,-4.10
2018,09,18,06,26,-4.10
2018,09,18,06,27,-4.10
2018,09,18,06,28,-4.10
2018,09,18,06,29,-4.10
2018,09,18,06,30,-4.10
2018,09,18,06,31,-4.10
2018,09,18,06,32,-4.10
2018,09,18,06,33,-4.10
2018,09,18,06,34,-4.10
2018,09,18,06,35,-4.10
2018,09,18,06,36,-4.10
2018,09,18,06,37,-4.10
2018,09,18,06,38,-4.10
2018,09,18,06,39,-4.20
2018,09,18,06,40,-4.20
2018,09,18,06,41,-4.20
2018,09,18,06,42,-4.20
2018,09,18,06,43,-4.20
2018,09,18,06,44,-4.20
2018,09,18,06,45,-4.20
2018,09,18,06,46,-4.20
2018,09,18,06,47,-4.20
2018,09,18,06,48,-4.30
2018,09,18,06,49,-4.30
2018,09,18,06,50,-4.30
2018,09,18,06,51,-4.30
2018,09,18,06,52,-4.30
2018,09,18,06,53,-4.30
2018,09,18,06,54,-4.30
2018,09,18,06,55,-4.40
2018,09,18,06,56,-4.40
2018,09,18,06,57,-4.40
2018,09,18,06,58,-4.40
2018,09,18,06,59,-4.40
2018,09,18,07,00,-4.40
2018,09,18,07,01,-4.40
2018,09,18,07,02,-4.40
2018,09,18,07,03,-4.40
2018,09,18,07,04,-4.40
2018,09,18,07,05,-4.40
2018,09,18,07,06,-4.40
2018,09,18,07,07,-4.40
2018,09,18,07,08,-4.40
2018,09,18,07,09,-4.40
2018,09,18,07,10,-4.40
2018,09,18,07,11,-4.40
2018,09,18,07,12,-4.50
2018,09,18,07,13,-4.50
2018,09,18,07,14,-4.50
2018,09,18,07,15,-4.50
2018,09,18,07,16,-4.50
2018,09,18,07,17,-4.50
2018,09,18,07,18,-4.50
2018,09,18,07,19,-4.60
2018,09,18,07,20,-4.60
2018,09,18,07,21,-4.60
2018,09,18,07,22,-4.60
2018,09,18,07,23,-4.60
2018,09,18,07,24,-4.60
2018,09,18,07,25,-4.60
2018,09,18,07,26,-4.60
2018,09,18,07,27,-4.60
2018,09,18,07,28,-4.60
2018,09,18,07,29,-4.60
2018,09,18,07,30,-4.60
2018,09,18,07,31,-4.70
2018,09,18,07,32,-4.70
2018,09,18,07,33,-4.70
2018,09,18,07,34,-4.70
2018,09,18,07,35,-4.70
2018,09,18,07,36,-4.70
2018,09,18,07,37,-4.60
2018,09,18,07,38,-4.60
2018,09,18,07,39,-4.60
2018,09,18,07,40,-4.60
2018,09,18,07,41,-4.60
2018,09,18,07,42,-4.60
2018,09,18,07,43,-4.60
2018,09,18,07,44,-4.60
2018,09,18,07,45,-4.60
2018,09,18,07,46,-4.60
2018,09,18,07,47,-4.60
2018,09,18,07,48,-4.60
2018,09,18,07,49,-4.70
2018,09,18,07,50,-4.70
2018,09,18,07,51,-4.70
2018,09,18,07,52,-4.70
2018,09,18,07,53,-4.70
2018,09,18,07,54,-4.70
2018,09,18,07,55,-4.70
2018,09,18,07,56,-4.70
2018,09,18,07,57,-4.70
2018,09,18,07,58,-4.70
2018,09,18,07,59,-4.60
2018,09,18,08,00,-4.60
2018,09,18,08,01,-4.60
2018,09,18,08,02,-4.60
2018,09,18,08,03,-4.60
2018,09,18,08,04,-4.60
2018,09,18,08,05,-4.60
2018,09,18,08,06,-4.60
2018,09,18,08,07,-4.60
2018,09,18,08,08,-4.60
2018,09,18,08,09,-4.50
2018,09,18,08,10,-4.50
2018,09,18,08,11,-4.50
2018,09,18,08,12,-4.50
2018,09,18,08,13,-4.50
2018,09,18,08,14,-4.50
2018,09,18,08,15,-4.50
2018,09,18,08,16,-4.50
2018,09,18,08,17,-4.40
2018,09,18,08,18,-4.40
2018,09,18,08,19,-4.40
2018,09,18,08,20,-4.40
2018,09,18,08,21,-4.40
2018,09,18,08,22,-4.40
2018,09,18,08,23,-4.40
2018,09,18,08,24,-4.40
2018,09,18,08,25,-4.40
2018,09,18,08,26,-4.40
2018,09,18,08,27,-4.40
2018,09,18,08,28,-4.40
2018,09,18,08,29,-4.40
2018,09,18,08,30,-4.40
2018,09,18,08,31,-4.40
2018,09,18,08,32,-4.40
2018,09,18,08,33,-4.40
2018,09,18,08,34,-4.40
2018,09,18,08,35,-4.40
2018,09,18,08,36,-4.40
2018,09,18,08,37,-4.40
2018,09,18,08,38,-4.40
2018,09,18,08,39,-4.40
2018,09,18,08,40,-4.40
2018,09,18,08,41,-4.40
2018,09,18,08,42,-4.40
2018,09,18,08,43,-4.30
2018,09,18,08,44,-4.30
2018,09,18,08,45,-4.30
2018,09,18,08,46,-4.30
2018,09,18,08,47,-4.30
2018,09,18,08,48,-4.30
2018,09,18,08,49,-4.30
2018,09,18,08,50,-4.30
2018,09,18,08,51,-4.30
2018,09,18,08,52,-4.30
2018,09,18,08,53,-4.30
2018,09,18,08,54,-4.30
2018,09,18,08,55,-4.30
2018,09,18,08,56,-4.30
2018,09,18,08,57,-4.30
2018,09,18,08,58,-4.30
2018,09,18,08,59,-4.30
2018,09,18,09,00,-4.30
2018,09,18,09,01,-4.30
2018,09,18,09,02,-4.30
2018,09,18,09,03,-4.30
2018,09,18,09,04,-4.30
2018,09,18,09,05,-4.30
2018,09,18,09,06,-4.30
2018,09,18,09,07,-4.30
2018,09,18,09,08,-4.30
2018,09,18,09,09,-4.30
2018,09,18,09,10,-4.30
2018,09,18,09,11,-4.30
2018,09,18,09,12,-4.30
2018,09,18,09,13,-4.30
2018,09,18,09,14,-4.20
2018,09,18,09,15,-4.20
2018,09,18,09,16,-4.20
2018,09,18,09,17,-4.20
2018,09,18,09,18,-4.20
2018,09,18,09,19,-4.20
2018,09,18,09,20,-4.20
2018,09,18,09,21,-4.20
2018,09,18,09,22,-4.20
2018,09,18,09,23,-4.20
2018,09,18,09,24,-4.20
2018,09,18,09,25,-4.20
2018,09,18,09,26,-4.20
2018,09,18,09,27,-4.20
2018,09,18,09,28,-4.20
2018,09,18,09,29,-4.20
2018,09,18,09,30,-4.20
2018,09,18,09,31,-4.10
2018,09,18,09,32,-4.10
2018,09,18,09,33,-4.10
2018,09,18,09,34,-4.10
2018,09,18,09,35,-4.10
2018,09,18,09,36,-4.10
2018,09,18,09,37,-4.10
2018,09,18,09,38,-4.10
2018,09,18,09,39,-4.10
2018,09,18,09,40,-4.00
2018,09,18,09,41,-4.00
2018,09,18,09,42,-4.00
2018,09,18,09,43,-4.00
2018,09,18,09,44,-4.00
2018,09,18,09,45,-4.00
2018,09,18,09,46,-4.00
2018,09,18,09,47,-4.00
2018,09,18,09,48,-4.00
2018,09,18,09,49,-3.90
2018,09,18,09,50,-3.90
2018,09,18,09,51,-3.90
2018,09,18,09,52,-3.90
2018,09,18,09,53,-3.90
2018,09,18,09,54,-3.90
2018,09,18,09,55,-3.90
2018,09,18,09,56,-3.90
2018,09,18,09,57,-3.90
2018,09,18,09,58,-3.90
2018,09,18,09,59,-3.90
2018,09,18,10,00,-3.90
2018,09,18,10,01,-3.90
2018,09,18,10,02,-3.90
2018,09,18,10,03,-3.90
2018,09,18,10,04,-3.90
2018,09,18,10,05,-3.90
2018,09,18,10,06,-3.90
2018,09,18,10,07,-3.90
2018,09,18,10,08,-3.90
2018,09,18,10,09,-3.90
2018,09,18,10,10,-3.90
2018,09,18,10,11,-3.90
2018,09,18,10,12,-3.90
2018,09,18,10,13,-3.90
2018,09,18,10,14,-3.90
2018,09,18,10,15,-3.90
2018,09,18,10,16,-3.90
2018,09,18,10,17,-3.80
2018,09,18,10,18,-3.80
2018,09,18,10,19,-3.80
2018,09,18,10,20,-3.80
2018,09,18,10,21,-3.80
2018,09,18,10,22,-3.80
2018,09,18,10,23,-3.80
2018,09,18,10,24,-3.80
2018,09,18,10,25,-3.80
2018,09,18,10,26,-3.80
2018,09,18,10,27,-3.80
2018,09,18,10,28,-3.80
2018,09,18,10,29,-3.80
2018,09,18,10,30,-3.80
2018,09,18,10,31,-3.80
2018,09,18,10,32,-3.80
2018,09,18,10,33,-3.70
2018,09,18,10,34,-3.70
2018,09,18,10,35,-3.70
2018,09,18,10,36,-3.60
2018,09,18,10,37,-3.50
2018,09,18,10,38,-3.40
2018,09,18,10,39,-3.30
2018,09,18,10,40,-3.20
2018,09,18,10,41,-3.10
2018,09,18,10,42,-3.00
2018,09,18,10,43,-2.80
2018,09,18,10,44,-2.70
2018,09,18,10,45,-2.50
2018,09,18,10,46,-2.40
2018,09,18,10,47,-2.30
2018,09,18,10,48,-2.20
2018,09,18,10,49,-2.20
2018,09,18,10,50,-2.10
2018,09,18,10,51,-2.10
2018,09,18,10,52,-2.10
2018,09,18,10,53,-2.10
2018,09,18,10,54,-2.10
2018,09,18,10,55,-2.00
2018,09,18,10,56,-2.00
2018,09,18,10,57,-2.00
2018,09,18,10,58,-1.90
2018,09,18,10,59,-1.90
2018,09,18,11,00,-1.90
2018,09,18,11,01,-1.80
2018,09,18,11,02,-1.80
2018,09,18,11,03,-1.70
2018,09,18,11,04,-1.60
2018,09,18,11,05,-1.50
2018,09,18,11,06,-1.40
2018,09,18,11,07,-1.40
2018,09,18,11,08,-1.30
2018,09,18,11,09,-1.30
2018,09,18,11,10,-1.20
2018,09,18,11,11,-1.20
2018,09,18,11,12,-1.10
2018,09,18,11,13,-1.00
2018,09,18,11,14,-0.90
2018,09,18,11,15,-0.80
2018,09,18,11,16,-0.70
2018,09,18,11,17,-0.70
2018,09,18,11,18,-0.50
2018,09,18,11,19,-0.40
2018,09,18,11,20,-0.30
2018,09,18,11,21,-0.30
2018,09,18,11,22,-0.20
2018,09,18,11,23,-0.10
2018,09,18,11,24,0.00
2018,09,18,11,25,0.00
2018,09,18,11,26,0.10
2018,09,18,11,27,0.20
2018,09,18,11,28,0.20
2018,09,18,11,29,0.20
2018,09,18,11,30,0.30
2018,09,18,11,31,0.40
2018,09,18,11,32,0.40
2018,09,18,11,33,0.50
2018,09,18,11,34,0.60
2018,09,18,11,35,0.60
2018,09,18,11,36,0.70
2018,09,18,11,37,0.80
2018,09,18,11,38,0.90
2018,09,18,11,39,1.00
2018,09,18,11,40,1.10
2018,09,18,11,41,1.20
2018,09,18,11,42,1.30
2018,09,18,11,43,1.30
2018,09,18,11,44,1.40
2018,09,18,11,45,1.40
2018,09,18,11,46,1.50
2018,09,18,11,47,1.60
2018,09,18,11,48,1.70
2018,09,18,11,49,1.70
2018,09,18,11,50,1.80
2018,09,18,11,51,1.80
2018,09,18,11,52,1.90
2018,09,18,11,53,1.90
2018,09,18,11,54,2.00
2018,09,18,11,55,2.10
2018,09,18,11,56,2.20
2018,09,18,11,57,2.20
2018,09,18,11,58,2.30
2018,09,18,11,59,2.40
2018,09,18,12,00,2.40
2018,09,18,12,01,2.50
2018,09,18,12,02,2.60
2018,09,18,12,03,2.60
2018,09,18,12,04,2.70
2018,09,18,12,05,2.70
2018,09,18,12,06,2.80
2018,09,18,12,07,2.80
2018,09,18,12,08,2.80
2018,09,18,12,09,2.90
2018,09,18,12,10,3.00
2018,09,18,12,11,3.00
2018,09,18,12,12,3.10
2018,09,18,12,13,3.20
2018,09,18,12,14,3.30
2018,09,18,12,15,3.30
2018,09,18,12,16,3.40
2018,09,18,12,17,3.40
2018,09,18,12,18,3.50
2018,09,18,12,19,3.60
2018,09,18,12,20,3.60
2018,09,18,12,21,3.70
2018,09,18,12,22,3.60
2018,09,18,12,23,3.60
2018,09,18,12,24,3.60
2018,09,18,12,25,3.60
2018,09,18,12,26,3.70
2018,09,18,12,27,3.70
2018,09,18,12,28,3.80
2018,09,18,12,29,3.80
2018,09,18,12,30,3.90
2018,09,18,12,31,3.90
2018,09,18,12,32,4.00
2018,09,18,12,33,4.10
2018,09,18,12,34,4.20
2018,09,18,12,35,4.20
2018,09,18,12,36,4.30
2018,09,18,12,37,4.40
2018,09,18,12,38,4.50
2018,09,18,12,39,4.60
2018,09,18,12,40,4.70
2018,09,18,12,41,4.80
2018,09,18,12,42,4.90
2018,09,18,12,43,5.00
2018,09,18,12,44,5.10
2018,09,18,12,45,5.20
2018,09,18,12,46,5.20
2018,09,18,12,47,5.30
2018,09,18,12,48,5.30
2018,09,18,12,49,5.40
2018,09,18,12,50,5.40
2018,09,18,12,51,5.50
2018,09,18,12,52,5.50
2018,09,18,12,53,5.50
2018,09,18,12,54,5.60
2018,09,18,12,55,5.60
2018,09,18,12,56,5.60
2018,09,18,12,57,5.60
2018,09,18,12,58,5.70
2018,09,18,12,59,5.70
2018,09,18,13,00,5.70
2018,09,18,13,01,5.80
2018,09,18,13,02,5.80
2018,09,18,13,03,5.80
2018,09,18,13,04,5.90
2018,09,18,13,05,5.90
2018,09,18,13,06,6.00
2018,09,18,13,07,6.10
2018,09,18,13,08,6.10
2018,09,18,13,09,6.20
2018,09,18,13,10,6.30
2018,09,18,13,11,6.30
2018,09,18,13,12,6.40
2018,09,18,13,13,6.50
2018,09,18,13,14,6.60
2018,09,18,13,15,6.70
2018,09,18,13,16,6.70
2018,09,18,13,17,6.70
2018,09,18,13,18,6.60
2018,09,18,13,19,6.60
2018,09,18,13,20,6.50
2018,09,18,13,21,6.50
2018,09,18,13,22,6.50
2018,09,18,13,23,6.50
2018,09,18,13,24,6.50
2018,09,18,13,25,6.60
2018,09,18,13,26,6.60
2018,09,18,13,27,6.70
2018,09,18,13,28,6.80
2018,09,18,13,29,6.80
2018,09,18,13,30,6.80
2018,09,18,13,31,6.90
2018,09,18,13,32,6.90
2018,09,18,13,33,6.90
2018,09,18,13,34,6.90
2018,09,18,13,35,6.90
2018,09,18,13,36,6.80
2018,09,18,13,37,6.80
2018,09,18,13,38,6.80
2018,09,18,13,39,6.80
2018,09,18,13,40,6.90
2018,09,18,13,41,7.00
2018,09,18,13,42,7.10
2018,09,18,13,43,7.20
2018,09,18,13,44,7.30
2018,09,18,13,45,7.40
2018,09,18,13,46,7.50
2018,09,18,13,47,7.60
2018,09,18,13,48,7.70
2018,09,18,13,49,7.80
2018,09,18,13,50,7.80
2018,09,18,13,51,7.90
2018,09,18,13,52,8.00
2018,09,18,13,53,8.00
2018,09,18,13,54,8.00
2018,09,18,13,55,8.00
2018,09,18,13,56,8.00
2018,09,18,13,57,8.00
2018,09,18,13,58,7.90
2018,09,18,13,59,8.00
2018,09,18,14,00,8.00
2018,09,18,14,01,8.10
2018,09,18,14,02,8.20
2018,09,18,14,03,8.20
2018,09,18,14,04,8.30
2018,09,18,14,05,8.30
2018,09,18,14,06,8.30
2018,09,18,14,07,8.30
2018,09,18,14,08,8.30
2018,09,18,14,09,8.30
2018,09,18,14,10,8.30
2018,09,18,14,11,8.30
2018,09,18,14,12,8.30
2018,09,18,14,13,8.30
2018,09,18,14,14,8.20
2018,09,18,14,15,8.20
2018,09,18,14,16,8.20
2018,09,18,14,17,8.20
2018,09,18,14,18,8.20
2018,09,18,14,19,8.20
2018,09,18,14,20,8.20
2018,09,18,14,21,8.30
2018,09,18,14,22,8.30
2018,09,18,14,23,8.30
2018,09,18,14,24,8.40
2018,09,18,14,25,8.40
2018,09,18,14,26,8.40
2018,09,18,14,27,8.40
2018,09,18,14,28,8.40
2018,09,18,14,29,8.50
2018,09,18,14,30,8.50
2018,09,18,14,31,8.50
2018,09,18,14,32,8.60
2018,09,18,14,33,8.60
2018,09,18,14,34,8.60
2018,09,18,14,35,8.60
2018,09,18,14,36,8.70
2018,09,18,14,37,8.70
2018,09,18,14,38,8.70
2018,09,18,14,39,8.70
2018,09,18,14,40,8.70
2018,09,18,14,41,8.70
2018,09,18,14,42,8.80
2018,09,18,14,43,8.80
2018,09,18,14,44,8.80
2018,09,18,14,45,8.90
2018,09,18,14,46,8.90
2018,09,18,14,47,9.00
2018,09,18,14,48,9.00
2018,09,18,14,49,9.10
2018,09,18,14,50,9.10
2018,09,18,14,51,9.10
2018,09,18,14,52,9.10
2018,09,18,14,53,9.10
2018,09,18,14,54,9.20
2018,09,18,14,55,9.20
2018,09,18,14,56,9.20
2018,09,18,14,57,9.30
2018,09,18,14,58,9.30
2018,09,18,14,59,9.30
2018,09,18,15,00,9.30
2018,09,18,15,01,9.30
2018,09,18,15,02,9.30
2018,09,18,15,03,9.40
2018,09,18,15,04,9.50
2018,09,18,15,05,9.50
2018,09,18,15,06,9.60
2018,09,18,15,07,9.60
2018,09,18,15,08,9.60
2018,09,18,15,09,9.70
2018,09,18,15,10,9.80
2018,09,18,15,11,9.80
2018,09,18,15,12,9.90
2018,09,18,15,13,9.90
2018,09,18,15,14,10.00
2018,09,18,15,15,10.10
2018,09,18,15,16,10.10
2018,09,18,15,17,10.20
2018,09,18,15,18,10.20
2018,09,18,15,19,10.20
2018,09,18,15,20,10.30
2018,09,18,15,21,10.30
2018,09,18,15,22,10.40
2018,09,18,15,23,10.50
2018,09,18,15,24,10.50
2018,09,18,15,25,10.60
2018,09,18,15,26,10.70
2018,09,18,15,27,10.70
2018,09,18,15,28,10.80
2018,09,18,15,29,10.80
2018,09,18,15,30,10.90
2018,09,18,15,31,10.90
2018,09,18,15,32,10.90
2018,09,18,15,33,10.90
2018,09,18,15,34,11.00
2018,09,18,15,35,11.00
2018,09,18,15,36,11.00
2018,09,18,15,37,11.10
2018,09,18,15,38,11.10
2018,09,18,15,39,11.20
2018,09,18,15,40,11.20
2018,09,18,15,41,11.20
2018,09,18,15,42,11.30
2018,09,18,15,43,11.40
2018,09,18,15,44,11.40
2018,09,18,15,45,11.50
2018,09,18,15,46,11.50
2018,09,18,15,47,11.50
2018,09,18,15,48,11.50
2018,09,18,15,49,11.40
2018,09,18,15,50,11.40
2018,09,18,15,51,11.40
2018,09,18,15,52,11.40
2018,09,18,15,53,11.50
2018,09,18,15,54,11.50
2018,09,18,15,55,11.60
2018,09,18,15,56,11.60
2018,09,18,15,57,11.70
2018,09,18,15,58,11.70
2018,09,18,15,59,11.70
2018,09,18,16,00,11.80
2018,09,18,16,01,11.80
2018,09,18,16,02,11.90
2018,09,18,16,03,12.00
2018,09,18,16,04,12.00
2018,09,18,16,05,12.10
2018,09,18,16,06,12.10
2018,09,18,16,07,12.10
2018,09,18,16,08,12.10
2018,09,18,16,09,12.10
2018,09,18,16,10,12.10
2018,09,18,16,11,12.10
2018,09,18,16,12,12.10
2018,09,18,16,13,12.20
2018,09,18,16,14,12.20
2018,09,18,16,15,12.20
2018,09,18,16,16,12.20
2018,09,18,16,17,12.20
2018,09,18,16,18,12.30
2018,09,18,16,19,12.30
2018,09,18,16,20,12.30
2018,09,18,16,21,12.40
2018,09,18,16,22,12.40
2018,09,18,16,23,12.40
2018,09,18,16,24,12.40
2018,09,18,16,25,12.40
2018,09,18,16,26,12.40
2018,09,18,16,27,12.50
2018,09,18,16,28,12.50
2018,09,18,16,29,12.60
2018,09,18,16,30,12.60
2018,09,18,16,31,12.70
2018,09,18,16,32,12.70
2018,09,18,16,33,12.70
2018,09,18,16,34,12.80
2018,09,18,16,35,12.80
2018,09,18,16,36,12.90
2018,09,18,16,37,12.90
2018,09,18,16,38,12.90
2018,09,18,16,39,13.00
2018,09,18,16,40,13.10
2018,09,18,16,41,13.10
2018,09,18,16,42,13.10
2018,09,18,16,43,13.20
2018,09,18,16,44,13.20
2018,09,18,16,45,13.30
2018,09,18,16,46,13.30
2018,09,18,16,47,13.30
2018,09,18,16,48,13.40
2018,09,18,16,49,13.40
2018,09,18,16,50,13.50
2018,09,18,16,51,13.50
2018,09,18,16,52,13.60
2018,09,18,16,53,13.60
2018,09,18,16,54,13.60
2018,09,18,16,55,13.70
2018,09,18,16,56,13.70
2018,09,18,16,57,13.70
2018,09,18,16,58,13.80
2018,09,18,16,59,13.80
2018,09,18,17,00,13.80
2018,09,18,17,01,13.80
2018,09,18,17,02,13.80
2018,09,18,17,03,13.80
2018,09,18,17,04,13.80
2018,09,18,17,05,13.80
2018,09,18,17,06,13.80
2018,09,18,17,07,13.80
2018,09,18,17,08,13.80
2018,09,18,17,09,13.80
2018,09,18,17,10,13.80
2018,09,18,17,11,13.70
2018,09,18,17,12,13.70
2018,09,18,17,13,13.70
2018,09,18,17,14,13.80
2018,09,18,17,15,13.80
2018,09,18,17,16,13.80
2018,09,18,17,17,13.90
2018,09,18,17,18,13.90
2018,09,18,17,19,13.90
2018,09,18,17,20,14.00
2018,09,18,17,21,14.00
2018,09,18,17,22,14.00
2018,09,18,17,23,14.00
2018,09,18,17,24,14.00
2018,09,18,17,25,14.00
2018,09,18,17,26,14.00
2018,09,18,17,27,14.00
2018,09,18,17,28,14.00
2018,09,18,17,29,14.00